Year,Month,Day,Hour,Minute,Value (Times are PST for windspeed in km/hr)
2008,12,18,00,00,16.00
2008,12,18,00,01,14.60
2008,12,18,00,02,20.80
2008,12,18,00,03,17.10
2008,12,18,00,04,19.30
2008,12,18,00,05,18.30
2008,12,18,00,06,13.70
2008,12,18,00,07,14.20
2008,12,18,00,08,19.40
2008,12,18,00,09,17.90
2008,12,18,00,10,11.90
2008,12,18,00,11,20.10
2008,12,18,00,12,12.10
2008,12,18,00,13,17.90
2008,12,18,00,14,16.50
2008,12,18,00,15,20.60
2008,12,18,00,16,16.30
2008,12,18,00,17,14.00
2008,12,18,00,18,11.20
2008,12,18,00,19,18.40
2008,12,18,00,20,19.30
2008,12,18,00,21,20.00
2008,12,18,00,22,19.90
2008,12,18,00,23,18.70
2008,12,18,00,24,16.10
2008,12,18,00,25,18.70
2008,12,18,00,26,17.90
2008,12,18,00,27,13.80
2008,12,18,00,28,14.90
2008,12,18,00,29,8.40
2008,12,18,00,30,16.50
2008,12,18,00,31,10.60
2008,12,18,00,32,10.60
2008,12,18,00,33,9.30
2008,12,18,00,34,16.60
2008,12,18,00,35,18.40
2008,12,18,00,36,15.60
2008,12,18,00,37,13.60
2008,12,18,00,38,16.70
2008,12,18,00,39,20.00
2008,12,18,00,40,17.10
2008,12,18,00,41,15.00
2008,12,18,00,42,17.70
2008,12,18,00,43,13.60
2008,12,18,00,44,15.70
2008,12,18,00,45,12.80
2008,12,18,00,46,15.20
2008,12,18,00,47,11.80
2008,12,18,00,48,12.80
2008,12,18,00,49,14.70
2008,12,18,00,50,16.90
2008,12,18,00,51,18.10
2008,12,18,00,52,19.70
2008,12,18,00,53,22.20
2008,12,18,00,54,18.70
2008,12,18,00,55,19.80
2008,12,18,00,56,18.50
2008,12,18,00,57,10.60
2008,12,18,00,58,16.30
2008,12,18,00,59,13.60
2008,12,18,01,00,20.30
2008,12,18,01,01,11.80
2008,12,18,01,02,21.20
2008,12,18,01,03,14.60
2008,12,18,01,04,10.30
2008,12,18,01,05,10.20
2008,12,18,01,06,18.20
2008,12,18,01,07,17.40
2008,12,18,01,08,19.70
2008,12,18,01,09,15.20
2008,12,18,01,10,20.40
2008,12,18,01,11,15.90
2008,12,18,01,12,12.70
2008,12,18,01,13,19.00
2008,12,18,01,14,17.90
2008,12,18,01,15,18.30
2008,12,18,01,16,20.30
2008,12,18,01,17,20.10
2008,12,18,01,18,20.30
2008,12,18,01,19,17.80
2008,12,18,01,20,16.70
2008,12,18,01,21,15.20
2008,12,18,01,22,14.60
2008,12,18,01,23,17.50
2008,12,18,01,24,19.40
2008,12,18,01,25,22.20
2008,12,18,01,26,18.70
2008,12,18,01,27,16.70
2008,12,18,01,28,17.50
2008,12,18,01,29,19.80
2008,12,18,01,30,17.70
2008,12,18,01,31,15.90
2008,12,18,01,32,19.20
2008,12,18,01,33,16.00
2008,12,18,01,34,14.20
2008,12,18,01,35,19.20
2008,12,18,01,36,17.90
2008,12,18,01,37,19.60
2008,12,18,01,38,19.20
2008,12,18,01,39,24.60
2008,12,18,01,40,18.20
2008,12,18,01,41,22.10
2008,12,18,01,42,18.60
2008,12,18,01,43,16.90
2008,12,18,01,44,19.90
2008,12,18,01,45,20.50
2008,12,18,01,46,19.00
2008,12,18,01,47,18.20
2008,12,18,01,48,21.90
2008,12,18,01,49,20.40
2008,12,18,01,50,11.30
2008,12,18,01,51,19.10
2008,12,18,01,52,18.30
2008,12,18,01,53,20.80
2008,12,18,01,54,20.50
2008,12,18,01,55,17.30
2008,12,18,01,56,20.50
2008,12,18,01,57,15.60
2008,12,18,01,58,14.30
2008,12,18,01,59,20.80
2008,12,18,02,00,17.50
2008,12,18,02,01,20.20
2008,12,18,02,02,17.10
2008,12,18,02,03,21.10
2008,12,18,02,04,18.10
2008,12,18,02,05,21.10
2008,12,18,02,06,23.80
2008,12,18,02,07,17.40
2008,12,18,02,08,20.90
2008,12,18,02,09,22.50
2008,12,18,02,10,18.20
2008,12,18,02,11,21.70
2008,12,18,02,12,16.40
2008,12,18,02,13,16.40
2008,12,18,02,14,22.90
2008,12,18,02,15,18.50
2008,12,18,02,16,15.00
2008,12,18,02,17,18.00
2008,12,18,02,18,19.50
2008,12,18,02,19,18.00
2008,12,18,02,20,13.40
2008,12,18,02,21,14.70
2008,12,18,02,22,13.30
2008,12,18,02,23,8.90
2008,12,18,02,24,15.60
2008,12,18,02,25,22.30
2008,12,18,02,26,17.80
2008,12,18,02,27,15.20
2008,12,18,02,28,17.70
2008,12,18,02,29,17.10
2008,12,18,02,30,20.20
2008,12,18,02,31,21.30
2008,12,18,02,32,21.80
2008,12,18,02,33,18.10
2008,12,18,02,34,21.00
2008,12,18,02,35,22.00
2008,12,18,02,36,20.40
2008,12,18,02,37,17.10
2008,12,18,02,38,17.10
2008,12,18,02,39,22.40
2008,12,18,02,40,16.80
2008,12,18,02,41,17.30
2008,12,18,02,42,12.30
2008,12,18,02,43,16.20
2008,12,18,02,44,17.40
2008,12,18,02,45,20.80
2008,12,18,02,46,19.90
2008,12,18,02,47,21.20
2008,12,18,02,48,22.90
2008,12,18,02,49,17.80
2008,12,18,02,50,16.30
2008,12,18,02,51,22.90
2008,12,18,02,52,14.00
2008,12,18,02,53,16.20
2008,12,18,02,54,19.60
2008,12,18,02,55,21.00
2008,12,18,02,56,17.80
2008,12,18,02,57,22.10
2008,12,18,02,58,21.30
2008,12,18,02,59,13.20
2008,12,18,03,00,13.00
2008,12,18,03,01,11.70
2008,12,18,03,02,9.90
2008,12,18,03,03,14.20
2008,12,18,03,04,12.30
2008,12,18,03,05,17.70
2008,12,18,03,06,20.50
2008,12,18,03,07,20.10
2008,12,18,03,08,18.40
2008,12,18,03,09,12.30
2008,12,18,03,10,9.10
2008,12,18,03,11,11.90
2008,12,18,03,12,26.00
2008,12,18,03,13,18.70
2008,12,18,03,14,11.40
2008,12,18,03,15,19.90
2008,12,18,03,16,16.70
2008,12,18,03,17,19.10
2008,12,18,03,18,18.60
2008,12,18,03,19,20.30
2008,12,18,03,20,15.90
2008,12,18,03,21,16.10
2008,12,18,03,22,19.20
2008,12,18,03,23,21.00
2008,12,18,03,24,14.70
2008,12,18,03,25,22.40
2008,12,18,03,26,19.60
2008,12,18,03,27,18.70
2008,12,18,03,28,23.60
2008,12,18,03,29,19.90
2008,12,18,03,30,20.50
2008,12,18,03,31,16.70
2008,12,18,03,32,17.50
2008,12,18,03,33,18.60
2008,12,18,03,34,17.40
2008,12,18,03,35,19.60
2008,12,18,03,36,23.40
2008,12,18,03,37,17.80
2008,12,18,03,38,12.40
2008,12,18,03,39,18.80
2008,12,18,03,40,20.70
2008,12,18,03,41,18.60
2008,12,18,03,42,19.20
2008,12,18,03,43,13.60
2008,12,18,03,44,14.60
2008,12,18,03,45,19.20
2008,12,18,03,46,20.20
2008,12,18,03,47,17.10
2008,12,18,03,48,10.60
2008,12,18,03,49,13.70
2008,12,18,03,50,16.90
2008,12,18,03,51,17.90
2008,12,18,03,52,15.00
2008,12,18,03,53,13.60
2008,12,18,03,54,11.40
2008,12,18,03,55,21.30
2008,12,18,03,56,18.50
2008,12,18,03,57,14.20
2008,12,18,03,58,18.30
2008,12,18,03,59,16.40
2008,12,18,04,00,18.20
2008,12,18,04,01,20.30
2008,12,18,04,02,15.20
2008,12,18,04,03,16.60
2008,12,18,04,04,18.50
2008,12,18,04,05,11.50
2008,12,18,04,06,17.20
2008,12,18,04,07,15.90
2008,12,18,04,08,11.10
2008,12,18,04,09,14.40
2008,12,18,04,10,17.30
2008,12,18,04,11,18.70
2008,12,18,04,12,19.10
2008,12,18,04,13,17.40
2008,12,18,04,14,14.20
2008,12,18,04,15,20.00
2008,12,18,04,16,12.70
2008,12,18,04,17,18.90
2008,12,18,04,18,16.10
2008,12,18,04,19,12.90
2008,12,18,04,20,18.20
2008,12,18,04,21,16.30
2008,12,18,04,22,19.90
2008,12,18,04,23,18.10
2008,12,18,04,24,15.10
2008,12,18,04,25,17.40
2008,12,18,04,26,20.00
2008,12,18,04,27,15.90
2008,12,18,04,28,19.90
2008,12,18,04,29,22.30
2008,12,18,04,30,12.00
2008,12,18,04,31,13.00
2008,12,18,04,32,18.20
2008,12,18,04,33,12.70
2008,12,18,04,34,19.00
2008,12,18,04,35,16.20
2008,12,18,04,36,13.90
2008,12,18,04,37,14.90
2008,12,18,04,38,23.00
2008,12,18,04,39,18.40
2008,12,18,04,40,16.00
2008,12,18,04,41,19.60
2008,12,18,04,42,15.20
2008,12,18,04,43,11.40
2008,12,18,04,44,12.00
2008,12,18,04,45,20.80
2008,12,18,04,46,19.90
2008,12,18,04,47,20.40
2008,12,18,04,48,12.30
2008,12,18,04,49,14.20
2008,12,18,04,50,17.60
2008,12,18,04,51,17.90
2008,12,18,04,52,17.20
2008,12,18,04,53,17.50
2008,12,18,04,54,10.80
2008,12,18,04,55,17.90
2008,12,18,04,56,12.00
2008,12,18,04,57,20.00
2008,12,18,04,58,18.70
2008,12,18,04,59,19.70
2008,12,18,05,00,18.80
2008,12,18,05,01,19.30
2008,12,18,05,02,18.30
2008,12,18,05,03,17.40
2008,12,18,05,04,22.20
2008,12,18,05,05,16.20
2008,12,18,05,06,17.60
2008,12,18,05,07,14.70
2008,12,18,05,08,21.20
2008,12,18,05,09,19.70
2008,12,18,05,10,20.10
2008,12,18,05,11,18.50
2008,12,18,05,12,18.50
2008,12,18,05,13,20.10
2008,12,18,05,14,13.80
2008,12,18,05,15,16.30
2008,12,18,05,16,11.80
2008,12,18,05,17,18.70
2008,12,18,05,18,11.90
2008,12,18,05,19,14.50
2008,12,18,05,20,17.00
2008,12,18,05,21,20.20
2008,12,18,05,22,15.00
2008,12,18,05,23,15.40
2008,12,18,05,24,19.50
2008,12,18,05,25,21.00
2008,12,18,05,26,16.90
2008,12,18,05,27,15.90
2008,12,18,05,28,14.50
2008,12,18,05,29,21.60
2008,12,18,05,30,16.60
2008,12,18,05,31,15.10
2008,12,18,05,32,18.00
2008,12,18,05,33,11.50
2008,12,18,05,34,15.90
2008,12,18,05,35,20.70
2008,12,18,05,36,16.30
2008,12,18,05,37,21.00
2008,12,18,05,38,18.50
2008,12,18,05,39,21.70
2008,12,18,05,40,21.70
2008,12,18,05,41,19.10
2008,12,18,05,42,18.70
2008,12,18,05,43,20.80
2008,12,18,05,44,19.70
2008,12,18,05,45,13.80
2008,12,18,05,46,21.90
2008,12,18,05,47,14.10
2008,12,18,05,48,17.40
2008,12,18,05,49,19.20
2008,12,18,05,50,18.20
2008,12,18,05,51,19.40
2008,12,18,05,52,20.10
2008,12,18,05,53,20.40
2008,12,18,05,54,14.70
2008,12,18,05,55,17.50
2008,12,18,05,56,15.80
2008,12,18,05,57,20.80
2008,12,18,05,58,16.10
2008,12,18,05,59,17.60
2008,12,18,06,00,16.20
2008,12,18,06,01,16.50
2008,12,18,06,02,18.00
2008,12,18,06,03,13.10
2008,12,18,06,04,15.80
2008,12,18,06,05,11.10
2008,12,18,06,06,19.30
2008,12,18,06,07,20.60
2008,12,18,06,08,18.30
2008,12,18,06,09,18.10
2008,12,18,06,10,20.30
2008,12,18,06,11,16.40
2008,12,18,06,12,17.30
2008,12,18,06,13,22.40
2008,12,18,06,14,10.90
2008,12,18,06,15,12.60
2008,12,18,06,16,19.60
2008,12,18,06,17,21.80
2008,12,18,06,18,19.30
2008,12,18,06,19,18.70
2008,12,18,06,20,21.00
2008,12,18,06,21,18.90
2008,12,18,06,22,17.30
2008,12,18,06,23,24.70
2008,12,18,06,24,22.20
2008,12,18,06,25,14.70
2008,12,18,06,26,20.70
2008,12,18,06,27,19.30
2008,12,18,06,28,19.70
2008,12,18,06,29,20.80
2008,12,18,06,30,17.00
2008,12,18,06,31,19.80
2008,12,18,06,32,13.30
2008,12,18,06,33,20.40
2008,12,18,06,34,15.20
2008,12,18,06,35,18.20
2008,12,18,06,36,20.60
2008,12,18,06,37,17.20
2008,12,18,06,38,24.60
2008,12,18,06,39,15.20
2008,12,18,06,40,16.90
2008,12,18,06,41,14.60
2008,12,18,06,42,9.20
2008,12,18,06,43,21.30
2008,12,18,06,44,18.30
2008,12,18,06,45,18.10
2008,12,18,06,46,18.10
2008,12,18,06,47,21.30
2008,12,18,06,48,17.40
2008,12,18,06,49,15.70
2008,12,18,06,50,15.10
2008,12,18,06,51,19.10
2008,12,18,06,52,20.50
2008,12,18,06,53,10.20
2008,12,18,06,54,16.70
2008,12,18,06,55,17.60
2008,12,18,06,56,14.80
2008,12,18,06,57,16.30
2008,12,18,06,58,17.80
2008,12,18,06,59,18.40
2008,12,18,07,00,16.40
2008,12,18,07,01,17.00
2008,12,18,07,02,23.80
2008,12,18,07,03,14.50
2008,12,18,07,04,14.30
2008,12,18,07,05,18.60
2008,12,18,07,06,17.70
2008,12,18,07,07,22.90
2008,12,18,07,08,15.90
2008,12,18,07,09,11.70
2008,12,18,07,10,16.60
2008,12,18,07,11,12.90
2008,12,18,07,12,23.10
2008,12,18,07,13,17.40
2008,12,18,07,14,14.90
2008,12,18,07,15,14.80
2008,12,18,07,16,10.80
2008,12,18,07,17,15.20
2008,12,18,07,18,14.00
2008,12,18,07,19,19.90
2008,12,18,07,20,19.70
2008,12,18,07,21,12.60
2008,12,18,07,22,15.30
2008,12,18,07,23,13.60
2008,12,18,07,24,17.30
2008,12,18,07,25,13.50
2008,12,18,07,26,16.80
2008,12,18,07,27,21.00
2008,12,18,07,28,18.50
2008,12,18,07,29,13.10
2008,12,18,07,30,13.60
2008,12,18,07,31,20.70
2008,12,18,07,32,15.20
2008,12,18,07,33,10.30
2008,12,18,07,34,13.10
2008,12,18,07,35,19.10
2008,12,18,07,36,21.20
2008,12,18,07,37,14.90
2008,12,18,07,38,20.60
2008,12,18,07,39,17.40
2008,12,18,07,40,22.40
2008,12,18,07,41,16.90
2008,12,18,07,42,15.10
2008,12,18,07,43,15.20
2008,12,18,07,44,20.00
2008,12,18,07,45,15.30
2008,12,18,07,46,20.60
2008,12,18,07,47,17.60
2008,12,18,07,48,13.60
2008,12,18,07,49,13.50
2008,12,18,07,50,10.50
2008,12,18,07,51,17.40
2008,12,18,07,52,15.50
2008,12,18,07,53,12.00
2008,12,18,07,54,19.60
2008,12,18,07,55,20.40
2008,12,18,07,56,20.80
2008,12,18,07,57,10.80
2008,12,18,07,58,16.30
2008,12,18,07,59,12.10
2008,12,18,08,00,24.30
2008,12,18,08,01,15.60
2008,12,18,08,02,13.30
2008,12,18,08,03,9.50
2008,12,18,08,04,20.60
2008,12,18,08,05,17.90
2008,12,18,08,06,19.20
2008,12,18,08,07,20.00
2008,12,18,08,08,13.50
2008,12,18,08,09,14.60
2008,12,18,08,10,13.10
2008,12,18,08,11,13.20
2008,12,18,08,12,16.90
2008,12,18,08,13,19.40
2008,12,18,08,14,14.40
2008,12,18,08,15,20.20
2008,12,18,08,16,18.50
2008,12,18,08,17,11.00
2008,12,18,08,18,19.10
2008,12,18,08,19,14.80
2008,12,18,08,20,17.70
2008,12,18,08,21,11.50
2008,12,18,08,22,13.70
2008,12,18,08,23,19.20
2008,12,18,08,24,12.50
2008,12,18,08,25,13.30
2008,12,18,08,26,8.00
2008,12,18,08,27,12.10
2008,12,18,08,28,14.00
2008,12,18,08,29,12.10
2008,12,18,08,30,14.00
2008,12,18,08,31,18.90
2008,12,18,08,32,24.00
2008,12,18,08,33,20.00
2008,12,18,08,34,18.30
2008,12,18,08,35,12.90
2008,12,18,08,36,13.40
2008,12,18,08,37,19.70
2008,12,18,08,38,16.90
2008,12,18,08,39,17.20
2008,12,18,08,40,19.10
2008,12,18,08,41,19.40
2008,12,18,08,42,19.20
2008,12,18,08,43,14.30
2008,12,18,08,44,13.80
2008,12,18,08,45,18.80
2008,12,18,08,46,13.50
2008,12,18,08,47,14.20
2008,12,18,08,48,18.00
2008,12,18,08,49,17.90
2008,12,18,08,50,14.50
2008,12,18,08,51,18.40
2008,12,18,08,52,19.60
2008,12,18,08,53,16.90
2008,12,18,08,54,19.50
2008,12,18,08,55,16.60
2008,12,18,08,56,16.50
2008,12,18,08,57,12.20
2008,12,18,08,58,19.10
2008,12,18,08,59,26.90
2008,12,18,09,00,18.60
2008,12,18,09,01,20.40
2008,12,18,09,02,14.90
2008,12,18,09,03,16.30
2008,12,18,09,04,18.80
2008,12,18,09,05,17.50
2008,12,18,09,06,16.30
2008,12,18,09,07,21.70
2008,12,18,09,08,24.10
2008,12,18,09,09,13.70
2008,12,18,09,10,14.20
2008,12,18,09,11,15.80
2008,12,18,09,12,15.90
2008,12,18,09,13,17.30
2008,12,18,09,14,19.20
2008,12,18,09,15,19.20
2008,12,18,09,16,22.70
2008,12,18,09,17,15.50
2008,12,18,09,18,19.10
2008,12,18,09,19,24.20
2008,12,18,09,20,18.20
2008,12,18,09,21,19.50
2008,12,18,09,22,19.20
2008,12,18,09,23,15.20
2008,12,18,09,24,20.30
2008,12,18,09,25,14.30
2008,12,18,09,26,13.40
2008,12,18,09,27,23.90
2008,12,18,09,28,14.10
2008,12,18,09,29,17.10
2008,12,18,09,30,22.40
2008,12,18,09,31,16.40
2008,12,18,09,32,18.00
2008,12,18,09,33,19.70
2008,12,18,09,34,10.60
2008,12,18,09,35,18.90
2008,12,18,09,36,15.00
2008,12,18,09,37,16.30
2008,12,18,09,38,13.50
2008,12,18,09,39,13.20
2008,12,18,09,40,18.90
2008,12,18,09,41,17.40
2008,12,18,09,42,19.90
2008,12,18,09,43,19.10
2008,12,18,09,44,18.70
2008,12,18,09,45,16.90
2008,12,18,09,46,13.60
2008,12,18,09,47,23.20
2008,12,18,09,48,22.80
2008,12,18,09,49,20.20
2008,12,18,09,50,16.70
2008,12,18,09,51,20.90
2008,12,18,09,52,20.80
2008,12,18,09,53,17.20
2008,12,18,09,54,17.90
2008,12,18,09,55,21.50
2008,12,18,09,56,16.30
2008,12,18,09,57,15.70
2008,12,18,09,58,22.40
2008,12,18,09,59,16.20
2008,12,18,10,00,15.90
2008,12,18,10,01,18.70
2008,12,18,10,02,13.50
2008,12,18,10,03,19.20
2008,12,18,10,04,12.30
2008,12,18,10,05,16.40
2008,12,18,10,06,22.80
2008,12,18,10,07,15.70
2008,12,18,10,08,17.80
2008,12,18,10,09,16.90
2008,12,18,10,10,18.20
2008,12,18,10,11,15.80
2008,12,18,10,12,18.20
2008,12,18,10,13,16.10
2008,12,18,10,14,17.10
2008,12,18,10,15,12.40
2008,12,18,10,16,13.40
2008,12,18,10,17,20.60
2008,12,18,10,18,23.00
2008,12,18,10,19,19.50
2008,12,18,10,20,15.20
2008,12,18,10,21,13.40
2008,12,18,10,22,21.30
2008,12,18,10,23,22.30
2008,12,18,10,24,11.40
2008,12,18,10,25,12.60
2008,12,18,10,26,22.00
2008,12,18,10,27,17.10
2008,12,18,10,28,18.30
2008,12,18,10,29,20.90
2008,12,18,10,30,23.70
2008,12,18,10,31,17.40
2008,12,18,10,32,10.30
2008,12,18,10,33,14.20
2008,12,18,10,34,12.80
2008,12,18,10,35,10.70
2008,12,18,10,36,20.90
2008,12,18,10,37,22.20
2008,12,18,10,38,15.90
2008,12,18,10,39,12.80
2008,12,18,10,40,21.60
2008,12,18,10,41,13.60
2008,12,18,10,42,20.80
2008,12,18,10,43,17.60
2008,12,18,10,44,16.70
2008,12,18,10,45,13.50
2008,12,18,10,46,21.00
2008,12,18,10,47,22.10
2008,12,18,10,48,18.70
2008,12,18,10,49,14.80
2008,12,18,10,50,12.30
2008,12,18,10,51,12.10
2008,12,18,10,52,21.40
2008,12,18,10,53,16.40
2008,12,18,10,54,14.60
2008,12,18,10,55,19.00
2008,12,18,10,56,14.40
2008,12,18,10,57,12.40
2008,12,18,10,58,13.00
2008,12,18,10,59,18.30
2008,12,18,11,00,19.50
2008,12,18,11,01,11.00
2008,12,18,11,02,16.90
2008,12,18,11,03,16.30
2008,12,18,11,04,12.90
2008,12,18,11,05,15.30
2008,12,18,11,06,10.30
2008,12,18,11,07,11.10
2008,12,18,11,08,18.90
2008,12,18,11,09,12.50
2008,12,18,11,10,12.00
2008,12,18,11,11,12.40
2008,12,18,11,12,11.40
2008,12,18,11,13,15.10
2008,12,18,11,14,15.40
2008,12,18,11,15,14.10
2008,12,18,11,16,9.00
2008,12,18,11,17,17.50
2008,12,18,11,18,14.10
2008,12,18,11,19,24.10
2008,12,18,11,20,10.20
2008,12,18,11,21,11.20
2008,12,18,11,22,14.60
2008,12,18,11,23,18.70
2008,12,18,11,24,15.70
2008,12,18,11,25,14.60
2008,12,18,11,26,8.90
2008,12,18,11,27,13.70
2008,12,18,11,28,20.60
2008,12,18,11,29,17.30
2008,12,18,11,30,19.60
2008,12,18,11,31,16.90
2008,12,18,11,32,17.10
2008,12,18,11,33,17.00
2008,12,18,11,34,13.40
2008,12,18,11,35,12.80
2008,12,18,11,36,9.50
2008,12,18,11,37,16.70
2008,12,18,11,38,11.10
2008,12,18,11,39,14.80
2008,12,18,11,40,12.20
2008,12,18,11,41,15.10
2008,12,18,11,42,18.80
2008,12,18,11,43,17.80
2008,12,18,11,44,19.20
2008,12,18,11,45,19.70
2008,12,18,11,46,12.60
2008,12,18,11,47,14.60
2008,12,18,11,48,8.20
2008,12,18,11,49,13.20
2008,12,18,11,50,17.10
2008,12,18,11,51,16.20
2008,12,18,11,52,13.60
2008,12,18,11,53,16.70
2008,12,18,11,54,10.80
2008,12,18,11,55,17.40
2008,12,18,11,56,14.30
2008,12,18,11,57,17.40
2008,12,18,11,58,12.20
2008,12,18,11,59,18.40
2008,12,18,12,00,14.20
2008,12,18,12,01,8.70
2008,12,18,12,02,18.00
2008,12,18,12,03,16.20
2008,12,18,12,04,18.00
2008,12,18,12,05,11.90
2008,12,18,12,06,14.90
2008,12,18,12,07,14.50
2008,12,18,12,08,16.30
2008,12,18,12,09,16.90
2008,12,18,12,10,15.40
2008,12,18,12,11,14.30
2008,12,18,12,12,12.60
2008,12,18,12,13,10.00
2008,12,18,12,14,13.40
2008,12,18,12,15,15.20
2008,12,18,12,16,18.40
2008,12,18,12,17,15.80
2008,12,18,12,18,13.90
2008,12,18,12,19,19.00
2008,12,18,12,20,13.90
2008,12,18,12,21,18.10
2008,12,18,12,22,10.80
2008,12,18,12,23,16.30
2008,12,18,12,24,16.10
2008,12,18,12,25,16.30
2008,12,18,12,26,16.30
2008,12,18,12,27,15.60
2008,12,18,12,28,11.60
2008,12,18,12,29,15.90
2008,12,18,12,30,16.40
2008,12,18,12,31,18.90
2008,12,18,12,32,12.20
2008,12,18,12,33,12.10
2008,12,18,12,34,10.00
2008,12,18,12,35,11.60
2008,12,18,12,36,17.10
2008,12,18,12,37,16.20
2008,12,18,12,38,15.90
2008,12,18,12,39,14.80
2008,12,18,12,40,10.80
2008,12,18,12,41,11.60
2008,12,18,12,42,16.60
2008,12,18,12,43,15.80
2008,12,18,12,44,16.60
2008,12,18,12,45,9.90
2008,12,18,12,46,10.90
2008,12,18,12,47,13.60
2008,12,18,12,48,12.10
2008,12,18,12,49,17.70
2008,12,18,12,50,13.00
2008,12,18,12,51,8.50
2008,12,18,12,52,9.90
2008,12,18,12,53,21.40
2008,12,18,12,54,11.50
2008,12,18,12,55,9.70
2008,12,18,12,56,10.90
2008,12,18,12,57,12.00
2008,12,18,12,58,11.60
2008,12,18,12,59,13.80
2008,12,18,13,00,9.90
2008,12,18,13,01,10.50
2008,12,18,13,02,9.40
2008,12,18,13,03,9.30
2008,12,18,13,04,12.20
2008,12,18,13,05,7.40
2008,12,18,13,06,5.10
2008,12,18,13,07,7.90
2008,12,18,13,08,4.60
2008,12,18,13,09,8.90
2008,12,18,13,10,12.00
2008,12,18,13,11,7.70
2008,12,18,13,12,11.00
2008,12,18,13,13,12.30
2008,12,18,13,14,15.50
2008,12,18,13,15,12.60
2008,12,18,13,16,15.40
2008,12,18,13,17,11.70
2008,12,18,13,18,9.50
2008,12,18,13,19,15.40
2008,12,18,13,20,9.80
2008,12,18,13,21,13.60
2008,12,18,13,22,13.20
2008,12,18,13,23,12.30
2008,12,18,13,24,17.50
2008,12,18,13,25,12.50
2008,12,18,13,26,14.10
2008,12,18,13,27,11.20
2008,12,18,13,28,10.50
2008,12,18,13,29,9.30
2008,12,18,13,30,10.90
2008,12,18,13,31,8.30
2008,12,18,13,32,12.00
2008,12,18,13,33,5.90
2008,12,18,13,34,6.20
2008,12,18,13,35,12.70
2008,12,18,13,36,13.10
2008,12,18,13,37,10.90
2008,12,18,13,38,6.90
2008,12,18,13,39,6.60
2008,12,18,13,40,10.60
2008,12,18,13,41,9.00
2008,12,18,13,42,12.90
2008,12,18,13,43,15.60
2008,12,18,13,44,9.70
2008,12,18,13,45,8.60
2008,12,18,13,46,5.90
2008,12,18,13,47,8.00
2008,12,18,13,48,6.20
2008,12,18,13,49,11.10
2008,12,18,13,50,8.00
2008,12,18,13,51,9.10
2008,12,18,13,52,10.50
2008,12,18,13,53,9.40
2008,12,18,13,54,11.50
2008,12,18,13,55,9.50
2008,12,18,13,56,4.60
2008,12,18,13,57,4.20
2008,12,18,13,58,14.10
2008,12,18,13,59,5.80
2008,12,18,14,00,5.00
2008,12,18,14,01,6.10
2008,12,18,14,02,8.20
2008,12,18,14,03,11.40
2008,12,18,14,04,7.20
2008,12,18,14,05,5.80
2008,12,18,14,06,8.10
2008,12,18,14,07,3.80
2008,12,18,14,08,6.50
2008,12,18,14,09,7.60
2008,12,18,14,10,4.60
2008,12,18,14,11,5.80
2008,12,18,14,12,11.20
2008,12,18,14,13,10.80
2008,12,18,14,14,12.00
2008,12,18,14,15,11.20
2008,12,18,14,16,5.40
2008,12,18,14,17,6.30
2008,12,18,14,18,5.80
2008,12,18,14,19,5.30
2008,12,18,14,20,7.10
2008,12,18,14,21,8.00
2008,12,18,14,22,11.40
2008,12,18,14,23,6.10
2008,12,18,14,24,6.70
2008,12,18,14,25,8.20
2008,12,18,14,26,15.90
2008,12,18,14,27,12.30
2008,12,18,14,28,6.10
2008,12,18,14,29,3.40
2008,12,18,14,30,5.00
2008,12,18,14,31,8.20
2008,12,18,14,32,7.20
2008,12,18,14,33,7.50
2008,12,18,14,34,4.70
2008,12,18,14,35,4.90
2008,12,18,14,36,5.10
2008,12,18,14,37,7.40
2008,12,18,14,38,8.50
2008,12,18,14,39,7.60
2008,12,18,14,40,3.10
2008,12,18,14,41,4.10
2008,12,18,14,42,6.30
2008,12,18,14,43,6.40
2008,12,18,14,44,7.20
2008,12,18,14,45,7.90
2008,12,18,14,46,5.20
2008,12,18,14,47,4.00
2008,12,18,14,48,2.70
2008,12,18,14,49,5.00
2008,12,18,14,50,9.60
2008,12,18,14,51,8.00
2008,12,18,14,52,2.90
2008,12,18,14,53,5.20
2008,12,18,14,54,4.20
2008,12,18,14,55,4.80
2008,12,18,14,56,2.90
2008,12,18,14,57,6.90
2008,12,18,14,58,6.30
2008,12,18,14,59,4.90
2008,12,18,15,00,7.30
2008,12,18,15,01,5.50
2008,12,18,15,02,6.90
2008,12,18,15,03,6.50
2008,12,18,15,04,5.80
2008,12,18,15,05,2.50
2008,12,18,15,06,0.10
2008,12,18,15,07,3.70
2008,12,18,15,08,4.80
2008,12,18,15,09,8.40
2008,12,18,15,10,11.30
2008,12,18,15,11,14.60
2008,12,18,15,12,7.90
2008,12,18,15,13,7.20
2008,12,18,15,14,6.40
2008,12,18,15,15,4.30
2008,12,18,15,16,9.10
2008,12,18,15,17,6.60
2008,12,18,15,18,7.20
2008,12,18,15,19,7.00
2008,12,18,15,20,5.50
2008,12,18,15,21,5.30
2008,12,18,15,22,4.70
2008,12,18,15,23,4.20
2008,12,18,15,24,4.90
2008,12,18,15,25,3.00
2008,12,18,15,26,1.80
2008,12,18,15,27,4.30
2008,12,18,15,28,6.90
2008,12,18,15,29,16.40
2008,12,18,15,30,9.70
2008,12,18,15,31,7.70
2008,12,18,15,32,6.80
2008,12,18,15,33,9.70
2008,12,18,15,34,8.00
2008,12,18,15,35,8.20
2008,12,18,15,36,3.80
2008,12,18,15,37,0.50
2008,12,18,15,38,1.80
2008,12,18,15,39,5.30
2008,12,18,15,40,8.40
2008,12,18,15,41,9.50
2008,12,18,15,42,10.90
2008,12,18,15,43,7.70
2008,12,18,15,44,5.70
2008,12,18,15,45,6.40
2008,12,18,15,46,6.60
2008,12,18,15,47,5.90
2008,12,18,15,48,5.50
2008,12,18,15,49,2.20
2008,12,18,15,50,8.00
2008,12,18,15,51,5.30
2008,12,18,15,52,7.30
2008,12,18,15,53,8.60
2008,12,18,15,54,6.40
2008,12,18,15,55,3.10
2008,12,18,15,56,6.90
2008,12,18,15,57,6.00
2008,12,18,15,58,5.20
2008,12,18,15,59,5.40
2008,12,18,16,00,2.30
2008,12,18,16,01,3.70
2008,12,18,16,02,4.80
2008,12,18,16,03,3.10
2008,12,18,16,04,8.10
2008,12,18,16,05,2.80
2008,12,18,16,06,3.40
2008,12,18,16,07,0.40
2008,12,18,16,08,4.50
2008,12,18,16,09,4.70
2008,12,18,16,10,4.70
2008,12,18,16,11,6.40
2008,12,18,16,12,5.40
2008,12,18,16,13,4.40
2008,12,18,16,14,4.50
2008,12,18,16,15,5.70
2008,12,18,16,16,5.50
2008,12,18,16,17,2.80
2008,12,18,16,18,5.40
2008,12,18,16,19,7.50
2008,12,18,16,20,0.80
2008,12,18,16,21,0.10
2008,12,18,16,22,0.50
2008,12,18,16,23,1.40
2008,12,18,16,24,5.00
2008,12,18,16,25,5.10
2008,12,18,16,26,0.30
2008,12,18,16,27,0.80
2008,12,18,16,28,5.50
2008,12,18,16,29,2.50
2008,12,18,16,30,2.50
2008,12,18,16,31,0.60
2008,12,18,16,32,6.10
2008,12,18,16,33,6.10
2008,12,18,16,34,6.10
2008,12,18,16,35,5.40
2008,12,18,16,36,2.50
2008,12,18,16,37,5.20
2008,12,18,16,38,3.60
2008,12,18,16,39,2.00
2008,12,18,16,40,4.00
2008,12,18,16,41,3.70
2008,12,18,16,42,3.90
2008,12,18,16,43,0.60
2008,12,18,16,44,1.10
2008,12,18,16,45,0.30
2008,12,18,16,46,0.80
2008,12,18,16,47,6.20
2008,12,18,16,48,4.90
2008,12,18,16,49,7.40
2008,12,18,16,50,9.80
2008,12,18,16,51,2.50
2008,12,18,16,52,7.50
2008,12,18,16,53,8.00
2008,12,18,16,54,5.70
2008,12,18,16,55,4.80
2008,12,18,16,56,2.40
2008,12,18,16,57,2.30
2008,12,18,16,58,6.30
2008,12,18,16,59,2.60
2008,12,18,17,00,3.90
2008,12,18,17,01,5.80
2008,12,18,17,02,1.30
2008,12,18,17,03,2.00
2008,12,18,17,04,0.10
2008,12,18,17,05,0.60
2008,12,18,17,06,0.20
2008,12,18,17,07,0.30
2008,12,18,17,08,0.70
2008,12,18,17,09,0.00
2008,12,18,17,10,0.90
2008,12,18,17,11,0.00
2008,12,18,17,12,1.10
2008,12,18,17,13,1.90
2008,12,18,17,14,1.90
2008,12,18,17,15,1.00
2008,12,18,17,16,0.10
2008,12,18,17,17,0.00
2008,12,18,17,18,0.00
2008,12,18,17,19,0.00
2008,12,18,17,20,0.00
2008,12,18,17,21,0.00
2008,12,18,17,22,0.50
2008,12,18,17,23,1.30
2008,12,18,17,24,1.10
2008,12,18,17,25,1.90
2008,12,18,17,26,2.50
2008,12,18,17,27,1.10
2008,12,18,17,28,0.00
2008,12,18,17,29,4.10
2008,12,18,17,30,1.50